Weather History for Monett, MO

Change the Weather History Date:

Sunday, April 21, 2013

  Actual Average (KJLN) Record (KJLN)
Temperature  
Mean Temperature 56 °F 60 °F  
Max Temperature 66 °F 72 °F 90 °F (1963)
Min Temperature 46 °F 49 °F 30 °F (1966)
Degree Days  
Heating Degree Days 9 7  
Month to date heating degree days 193  
Since 1 July heating degree days 3955  
Cooling Degree Days 0 2  
Month to date cooling degree days 26  
Year to date cooling degree days 36  
Growing Degree Days 6 (Base 50)    
Moisture  
Dew Point 38 °F    
Average Humidity 53    
Maximum Humidity 81    
Minimum Humidity 32    
Precipitation  
Precipitation 0.00 in 0.16 in 1.29 in (1996)
Month to date precipitation 2.86  
Year to date precipitation 10.63  
Sea Level Pressure  
Sea Level Pressure 30.20 in    
Wind  
Wind Speed 10 mph (SE)    
Max Wind Speed 18 mph    
Max Gust Speed 26 mph    
Visibility 10 miles    
Events      
T = Trace of Precipitation, MM = Missing Value Source: NWS Daily Summary

Daily Weather History Graph

Daily Weather History Graph

Search for Another Location

Airport:

Trip Planner

Search our weather history database for the weather conditions in past years. The results will help you decide how hot, cold, wet, or windy it might be!

Date:

Astronomy

Apr. 21, 2013 Rise Set
Actual Time 6:33 AM CDT 7:56 PM CDT
Civil Twilight 6:06 AM CDT 8:23 PM CDT
Nautical Twilight 5:34 AM CDT 8:56 PM CDT
Astronomical Twilight 5:00 AM CDT 9:30 PM CDT
Moon 3:48 PM CDT (4/21) 3:49 AM CDT (4/21)
Length of Visible Light 14h 16m
Length of Day
13h 22m
Waxing Gibbous, 80% of the Moon is Illuminated
Apr 21
Waxing Gibbous
Apr 25
Full
May 2
Last Quarter
May 9
New
May 17
First Quarter

Hourly Weather History & Observations

Time (CDT) Temp. Windchill Dew Point Humidity Pressure Visibility Wind Dir Wind Speed Gust Speed Precip Events Conditions
12:15 AM 51.8 °F - 35.6 °F 54% 30.18 in 10.0 mi ESE 9.2 mph - N/A   Clear
12:35 AM 51.8 °F - 35.6 °F 54% 30.18 in 10.0 mi ESE 10.4 mph - N/A   Clear
12:55 AM 51.8 °F - 35.6 °F 54% 30.18 in 10.0 mi ESE 10.4 mph - N/A   Clear
1:15 AM 51.8 °F - 35.6 °F 54% 30.18 in 10.0 mi ESE 10.4 mph - N/A   Clear
1:35 AM 51.8 °F - 35.6 °F 54% 30.18 in 10.0 mi ESE 9.2 mph - N/A   Clear
4:15 AM 48.2 °F - 37.4 °F 66% 30.20 in 10.0 mi ESE 10.4 mph - N/A   Clear
4:35 AM 48.2 °F - 37.4 °F 66% 30.21 in 10.0 mi ESE 10.4 mph - N/A   Clear
4:55 AM 48.2 °F - 37.4 °F 66% 30.21 in 10.0 mi ESE 9.2 mph - N/A   Clear
5:15 AM 48.2 °F - 37.4 °F 66% 30.21 in 10.0 mi SE 9.2 mph - N/A   Clear
5:35 AM 46.4 °F 41.9 °F 37.4 °F 71% 30.21 in 10.0 mi SE 9.2 mph - N/A   Clear
5:55 AM 46.4 °F 41.9 °F 37.4 °F 71% 30.22 in 10.0 mi SE 9.2 mph - N/A   Scattered Clouds
6:15 AM 46.4 °F 42.4 °F 37.4 °F 71% 30.23 in 10.0 mi SE 8.1 mph - N/A   Scattered Clouds
6:35 AM 46.4 °F 42.4 °F 37.4 °F 71% 30.25 in 10.0 mi ESE 8.1 mph - N/A   Clear
6:55 AM 46.4 °F 42.9 °F 39.2 °F 76% 30.25 in 10.0 mi ESE 6.9 mph - N/A   Clear
7:15 AM 46.4 °F 42.9 °F 39.2 °F 76% 30.26 in 10.0 mi ESE 6.9 mph - N/A   Clear
7:35 AM 46.4 °F 41.9 °F 41.0 °F 81% 30.26 in 10.0 mi ESE 9.2 mph - N/A   Clear
7:55 AM 48.2 °F - 41.0 °F 76% 30.26 in 10.0 mi ESE 10.4 mph - N/A   Clear
8:15 AM 50.0 °F - 41.0 °F 71% 30.27 in 10.0 mi ESE 10.4 mph 17.3 mph N/A   Clear
8:35 AM 51.8 °F - 41.0 °F 67% 30.26 in 10.0 mi ESE 10.4 mph - N/A   Clear
8:55 AM 53.6 °F - 42.8 °F 67% 30.26 in 10.0 mi SE 13.8 mph 17.3 mph N/A   Clear
9:15 AM 53.6 °F - 42.8 °F 67% 30.27 in 10.0 mi SE 10.4 mph 19.6 mph N/A   Clear
9:35 AM 55.4 °F - 41.0 °F 58% 30.27 in 10.0 mi SE 11.5 mph 17.3 mph N/A   Clear
9:55 AM 55.4 °F - 41.0 °F 58% 30.27 in 10.0 mi SSE 13.8 mph 20.7 mph N/A   Clear
10:15 AM 57.2 °F - 39.2 °F 51% 30.27 in 10.0 mi SSE 15.0 mph 20.7 mph N/A   Clear
10:35 AM 59.0 °F - 41.0 °F 51% 30.27 in 10.0 mi SSE 15.0 mph 23.0 mph N/A   Clear
10:55 AM 60.8 °F - 41.0 °F 48% 30.27 in 10.0 mi South 16.1 mph 19.6 mph N/A   Clear
11:15 AM 60.8 °F - 41.0 °F 48% 30.26 in 10.0 mi SSE 17.3 mph - N/A   Clear
11:35 AM 60.8 °F - 41.0 °F 48% 30.25 in 10.0 mi South 16.1 mph 21.9 mph N/A   Clear
11:55 AM 60.8 °F - 37.4 °F 42% 30.25 in 10.0 mi South 17.3 mph 26.5 mph N/A   Clear
12:15 PM 62.6 °F - 37.4 °F 39% 30.24 in 10.0 mi SSE 18.4 mph 23.0 mph N/A   Scattered Clouds
12:35 PM 62.6 °F - 37.4 °F 39% 30.23 in 10.0 mi SSE 15.0 mph 21.9 mph N/A   Mostly Cloudy
12:55 PM 62.6 °F - 37.4 °F 39% 30.22 in 10.0 mi South 11.5 mph - N/A   Overcast
1:15 PM 64.4 °F - 37.4 °F 37% 30.21 in 10.0 mi South 15.0 mph 23.0 mph N/A   Scattered Clouds
1:35 PM 62.6 °F - 37.4 °F 39% 30.20 in 10.0 mi South 16.1 mph 20.7 mph N/A   Clear
1:55 PM 64.4 °F - 37.4 °F 37% 30.20 in 10.0 mi South 12.7 mph 18.4 mph N/A   Clear
2:15 PM 62.6 °F - 39.2 °F 42% 30.20 in 10.0 mi SSE 11.5 mph - N/A   Clear
2:35 PM 62.6 °F - 37.4 °F 39% 30.18 in 10.0 mi SE 12.7 mph 16.1 mph N/A   Clear
2:55 PM 64.4 °F - 37.4 °F 37% 30.17 in 10.0 mi SE 9.2 mph - N/A   Scattered Clouds
3:15 PM 64.4 °F - 37.4 °F 37% 30.16 in 10.0 mi SSE 10.4 mph 16.1 mph N/A   Scattered Clouds
3:35 PM 64.4 °F - 39.2 °F 40% 30.15 in 10.0 mi ESE 11.5 mph 16.1 mph N/A   Scattered Clouds
3:55 PM 66.2 °F - 41.0 °F 40% 30.15 in 10.0 mi SE 9.2 mph 17.3 mph N/A   Scattered Clouds
4:15 PM 64.4 °F - 37.4 °F 37% 30.14 in 10.0 mi South 10.4 mph - N/A   Mostly Cloudy
4:35 PM 64.4 °F - 35.6 °F 34% 30.14 in 10.0 mi SE 9.2 mph - N/A   Overcast
4:55 PM 66.2 °F - 35.6 °F 32% 30.14 in 10.0 mi SSE 9.2 mph - N/A   Mostly Cloudy
5:35 PM 64.4 °F - 37.4 °F 37% 30.13 in 10.0 mi SE 11.5 mph - N/A   Scattered Clouds
5:55 PM 64.4 °F - 39.2 °F 40% 30.12 in 10.0 mi SE 6.9 mph - N/A   Scattered Clouds
6:15 PM 64.4 °F - 39.2 °F 40% 30.13 in 10.0 mi SE 5.8 mph - N/A   Mostly Cloudy
6:35 PM 64.4 °F - 37.4 °F 37% 30.13 in 10.0 mi South 5.8 mph - N/A   Mostly Cloudy
6:55 PM 62.6 °F - 37.4 °F 39% 30.13 in 10.0 mi SE 5.8 mph - N/A   Scattered Clouds
7:15 PM 60.8 °F - 37.4 °F 42% 30.14 in 10.0 mi ESE 6.9 mph - N/A   Scattered Clouds
7:35 PM 59.0 °F - 37.4 °F 45% 30.14 in 10.0 mi SE 6.9 mph - N/A   Scattered Clouds
7:55 PM 55.4 °F - 37.4 °F 51% 30.15 in 10.0 mi SE 8.1 mph - N/A   Scattered Clouds
8:15 PM 55.4 °F - 37.4 °F 51% 30.15 in 10.0 mi ESE 8.1 mph - N/A   Clear
8:35 PM 55.4 °F - 37.4 °F 51% 30.15 in 10.0 mi ESE 6.9 mph - N/A   Clear
8:55 PM 53.6 °F - 37.4 °F 54% 30.16 in 10.0 mi ESE 6.9 mph - N/A   Clear
9:15 PM 53.6 °F - 37.4 °F 54% 30.17 in 10.0 mi ESE 8.1 mph - N/A   Clear
9:35 PM 55.4 °F - 35.6 °F 47% 30.17 in 10.0 mi ESE 9.2 mph - N/A   Clear
9:55 PM 53.6 °F - 37.4 °F 54% 30.18 in 10.0 mi ESE 8.1 mph - N/A   Clear
10:15 PM 53.6 °F - 37.4 °F 54% 30.18 in 10.0 mi ESE 9.2 mph - N/A   Clear
10:35 PM 51.8 °F - 37.4 °F 58% 30.18 in 10.0 mi ESE 10.4 mph - N/A   Clear
10:55 PM 51.8 °F - 37.4 °F 58% 30.19 in 10.0 mi ESE 9.2 mph - N/A   Clear
11:15 PM 51.8 °F - 37.4 °F 58% 30.19 in 10.0 mi ESE 10.4 mph - N/A   Clear
11:35 PM 50.0 °F - 37.4 °F 62% 30.19 in 10.0 mi ESE 8.1 mph - N/A   Clear
11:55 PM 50.0 °F - 37.4 °F 62% 30.19 in 10.0 mi ESE 8.1 mph - N/A   Clear